When you browse on this site, cookies collect data to enhance your experience and personalize the content and advertising you see.
Visit our Privacy Policy to learn more. By continuing to use the site, you agree to this use of cookies and data.
EN

Hourly Weather Novyy Svet

Today, 14 August, Friday

Time Temperature Precipitation Wind Pressure Humidity
00:00 +17°C° 0 mm 3 mps 746 mmHg 50%
01:00 +17°C° 0 mm 3 mps 745 mmHg 51%
02:00 +17°C° 0 mm 3 mps 745 mmHg 54%
03:00 +17°C° 0 mm 3 mps 745 mmHg 56%
04:00 +17°C° 0 mm 3 mps 746 mmHg 58%
05:00 +16°C° 0 mm 3 mps 746 mmHg 61%
06:00 +19°C° 0 mm 3 mps 746 mmHg 54%
07:00 +21°C° 0 mm 3 mps 746 mmHg 47%
08:00 +24°C° 0 mm 2 mps 746 mmHg 41%
09:00 +25°C° 0 mm 2 mps 746 mmHg 38%
10:00 +26°C° 0 mm 3 mps 746 mmHg 35%
11:00 +27°C° 0 mm 3 mps 746 mmHg 32%
12:00 +27°C° 0 mm 3 mps 746 mmHg 33%
13:00 +27°C° 0 mm 4 mps 746 mmHg 35%
14:00 +27°C° 0 mm 4 mps 745 mmHg 36%
15:00 +26°C° 0 mm 4 mps 746 mmHg 38%
16:00 +25°C° 0 mm 3 mps 746 mmHg 41%
17:00 +25°C° 0 mm 2 mps 746 mmHg 43%
18:00 +22°C° 0 mm 3 mps 746 mmHg 49%
19:00 +20°C° 0 mm 3 mps 746 mmHg 56%
20:00 +18°C° 0 mm 4 mps 746 mmHg 63%
21:00 +18°C° 0 mm 3 mps 746 mmHg 65%
22:00 +17°C° 0 mm 3 mps 746 mmHg 67%
23:00 +17°C° 0 mm 2 mps 746 mmHg 69%

Tomorrow, 15 August, Saturday

Time Temperature Precipitation Wind Pressure Humidity
00:00 +17°C° 0 mm 2 mps 746 mmHg 69%
01:00 +16°C° 0 mm 2 mps 746 mmHg 70%
02:00 +16°C° 0 mm 2 mps 746 mmHg 71%
03:00 +16°C° 0 mm 2 mps 746 mmHg 71%
04:00 +16°C° 0 mm 3 mps 746 mmHg 71%
05:00 +14°C° 0 mm 3 mps 746 mmHg 72%
06:00 +17°C° 0 mm 3 mps 746 mmHg 64%
07:00 +20°C° 0 mm 3 mps 747 mmHg 56%
08:00 +22°C° 0 mm 3 mps 747 mmHg 48%
09:00 +24°C° 0 mm 3 mps 747 mmHg 44%
10:00 +25°C° 0 mm 3 mps 747 mmHg 39%
11:00 +26°C° 0 mm 2 mps 747 mmHg 35%
12:00 +26°C° 0 mm 3 mps 747 mmHg 35%
13:00 +26°C° 0 mm 4 mps 747 mmHg 35%
14:00 +26°C° 0 mm 4 mps 747 mmHg 36%
15:00 +25°C° 0 mm 4 mps 747 mmHg 38%
16:00 +23°C° 0 mm 4 mps 746 mmHg 40%
17:00 +22°C° 0 mm 4 mps 746 mmHg 42%
18:00 +20°C° 0 mm 4 mps 746 mmHg 49%
19:00 +18°C° 0 mm 4 mps 746 mmHg 57%
20:00 +17°C° 0 mm 3 mps 746 mmHg 64%
21:00 +16°C° 0 mm 3 mps 746 mmHg 66%
22:00 +16°C° 0 mm 3 mps 746 mmHg 68%
23:00 +16°C° 0 mm 3 mps 746 mmHg 71%

Day after tomorrow, 16 August, Sunday

Time Temperature Precipitation Wind Pressure Humidity
00:00 +16°C° 0 mm 3 mps 746 mmHg 72%
01:00 +15°C° 0 mm 4 mps 746 mmHg 73%
02:00 +14°C° 0 mm 4 mps 745 mmHg 74%
03:00 +15°C° 0 mm 4 mps 745 mmHg 73%
04:00 +15°C° 0 mm 4 mps 745 mmHg 73%
05:00 +15°C° 0 mm 4 mps 745 mmHg 73%
06:00 +18°C° 0 mm 4 mps 745 mmHg 64%
07:00 +20°C° 0 mm 5 mps 746 mmHg 56%
08:00 +22°C° 0 mm 5 mps 746 mmHg 47%
09:00 +23°C° 0 mm 5 mps 746 mmHg 44%
10:00 +24°C° 0 mm 6 mps 746 mmHg 42%
11:00 +26°C° 0 mm 6 mps 746 mmHg 39%
12:00 +26°C° 0 mm 6 mps 746 mmHg 38%
13:00 +26°C° 0 mm 6 mps 746 mmHg 38%
14:00 +26°C° 0 mm 6 mps 746 mmHg 38%
15:00 +24°C° 0 mm 6 mps 746 mmHg 40%
16:00 +23°C° 0 mm 6 mps 746 mmHg 43%
17:00 +23°C° 0 mm 6 mps 746 mmHg 46%
18:00 +21°C° 0 mm 6 mps 746 mmHg 51%
19:00 +19°C° 0 mm 5 mps 746 mmHg 57%
20:00 +16°C° 0 mm 5 mps 746 mmHg 62%
21:00 +16°C° 0 mm 5 mps 746 mmHg 63%
22:00 +16°C° 0 mm 5 mps 746 mmHg 64%
23:00 +16°C° 0 mm 5 mps 747 mmHg 65%

17 August, Monday

Time Temperature Precipitation Wind Pressure Humidity
00:00 +16°C° 0 mm 5 mps 746 mmHg 66%
01:00 +16°C° 0 mm 5 mps 746 mmHg 67%
02:00 +17°C° 0 mm 4 mps 746 mmHg 68%
03:00 +15°C° 0 mm 4 mps 746 mmHg 70%
04:00 +15°C° 0 mm 4 mps 746 mmHg 72%
05:00 +15°C° 0 mm 4 mps 746 mmHg 74%
06:00 +18°C° 0 mm 4 mps 747 mmHg 66%
07:00 +21°C° 0 mm 4 mps 747 mmHg 58%
08:00 +23°C° 0 mm 4 mps 747 mmHg 50%
09:00 +26°C° 0 mm 4 mps 747 mmHg 45%
10:00 +27°C° 0 mm 5 mps 747 mmHg 40%
11:00 +29°C° 0 mm 5 mps 747 mmHg 36%
12:00 +29°C° 0 mm 5 mps 747 mmHg 36%
13:00 +29°C° 0 mm 4 mps 747 mmHg 36%
14:00 +29°C° 0 mm 4 mps 746 mmHg 36%
15:00 +28°C° 0 mm 4 mps 746 mmHg 37%
16:00 +27°C° 0 mm 4 mps 746 mmHg 38%
17:00 +27°C° 0 mm 4 mps 746 mmHg 40%
18:00 +25°C° 0 mm 3 mps 746 mmHg 44%
19:00 +22°C° 0 mm 3 mps 746 mmHg 49%
20:00 +19°C° 0 mm 3 mps 746 mmHg 53%
21:00 +19°C° 0 mm 3 mps 745 mmHg 54%
22:00 +19°C° 0 mm 3 mps 745 mmHg 54%
23:00 +19°C° 0 mm 3 mps 745 mmHg 54%

18 August, Tuesday

Time Temperature Precipitation Wind Pressure Humidity
00:00 +19°C° 0 mm 3 mps 745 mmHg 55%
01:00 +19°C° 0 mm 3 mps 745 mmHg 57%
02:00 +19°C° 0 mm 3 mps 744 mmHg 58%
03:00 +19°C° 0 mm 3 mps 744 mmHg 58%
04:00 +18°C° 0 mm 3 mps 744 mmHg 58%
05:00 +18°C° 0 mm 3 mps 744 mmHg 59%
06:00 +21°C° 0 mm 3 mps 744 mmHg 51%
07:00 +24°C° 0 mm 3 mps 744 mmHg 43%
08:00 +27°C° 0 mm 3 mps 744 mmHg 36%
09:00 +28°C° 0 mm 3 mps 744 mmHg 34%
10:00 +29°C° 0 mm 3 mps 744 mmHg 32%
11:00 +31°C° 0 mm 3 mps 744 mmHg 30%
12:00 +31°C° 0 mm 3 mps 744 mmHg 30%
13:00 +31°C° 0 mm 2 mps 743 mmHg 30%
14:00 +31°C° 0 mm 2 mps 743 mmHg 31%
15:00 +31°C° 0 mm 2 mps 743 mmHg 33%
16:00 +30°C° 0 mm 2 mps 743 mmHg 36%
17:00 +29°C° 0 mm 1 mps 742 mmHg 39%
18:00 +27°C° 0 mm 2 mps 742 mmHg 45%
19:00 +25°C° 0 mm 2 mps 742 mmHg 52%
20:00 +23°C° 0 mm 2 mps 742 mmHg 59%
21:00 +21°C° 0 mm 2 mps 742 mmHg 60%
22:00 +21°C° 0 mm 2 mps 742 mmHg 60%
23:00 +20°C° 0 mm 2 mps 742 mmHg 60%

19 August, Wednesday

Time Temperature Precipitation Wind Pressure Humidity
00:00 +20°C° 0 mm 2 mps 742 mmHg 61%
01:00 +20°C° 0 mm 2 mps 742 mmHg 62%
02:00 +19°C° 0 mm 2 mps 742 mmHg 63%
03:00 +19°C° 0 mm 2 mps 741 mmHg 63%
04:00 +19°C° 0 mm 2 mps 741 mmHg 63%
05:00 +19°C° 0 mm 2 mps 741 mmHg 63%
06:00 +23°C° 0 mm 2 mps 741 mmHg 55%
07:00 +25°C° 0 mm 2 mps 741 mmHg 48%
08:00 +28°C° 0 mm 2 mps 742 mmHg 41%
09:00 +29°C° 0 mm 2 mps 742 mmHg 37%
10:00 +31°C° 0 mm 2 mps 742 mmHg 33%
11:00 +32°C° 0 mm 2 mps 742 mmHg 29%
12:00 +34°C° 0 mm 2 mps 742 mmHg 29%
13:00 +34°C° 0 mm 2 mps 741 mmHg 29%
14:00 +34°C° 0 mm 2 mps 741 mmHg 28%
15:00 +32°C° 0 mm 2 mps 741 mmHg 29%
16:00 +32°C° 0 mm 1 mps 741 mmHg 30%
17:00 +31°C° 0 mm 1 mps 741 mmHg 31%
18:00 +28°C° 0 mm 1 mps 741 mmHg 38%
19:00 +26°C° 0 mm 1 mps 741 mmHg 46%
20:00 +21°C° 0 mm 0 mps 740 mmHg 53%
21:00 +23°C° 0 mm 1 mps 740 mmHg 53%
22:00 +23°C° 0 mm 1 mps 740 mmHg 54%
23:00 +22°C° 0 mm 1 mps 740 mmHg 54%
Show more